RH
54 55 19 15 12 18 30 39 39 40 38 35 27 10 9 9 8 7 12 10 16 16 37 54 62 80 76 85 94 94 91 98 94 84 89 86 92 96 84 88 88 97 98 92 93 87 85 76 72 95 91 74 91 73
40 20 17 12 15 26 40 40 40 41 36 28 10 9 9 7 7 6 9 13 15 21 23 32 64 74 79 67 92 79 94 86 100 97 94 78 68 76 83 100 83 96 99 100 100 92 95 98 86 90 84 76 72 76
24 26 13 12 24 40 42 41 42 39 30 11 9 10 8 7 7 8 12 13 18 18 20 46 62 59 54 99 86 75 69 96 94 99 96 81 90 87 90 83 100 99 91 91 90 70 65 62 69 71 68 65 63 61
40 15 10 20 39 42 41 43 41 32 11 10 10 9 8 7 8 10 9 11 20 24 43 20 23 38 62 75 74 64 78 74 62 73 85 79 64 69 81 92 100 99 92 90 74 75 78 73 86 93 82 83 81 79
23 10 17 37 42 42 43 41 31 12 10 10 10 8 8 8 9 8 7 11 18 35 35 19 35 40 71 77 71 79 80 69 62 61 64 59 48 66 83 100 99 97 97 99 99 100 100 98 99 100 93 94 98 96
10 19 37 42 43 44 41 29 13 12 11 10 9 8 8 9 8 6 9 13 21 27 37 31 46 52 64 78 77 58 49 42 45 45 46 52 72 100 100 98 99 99 100 100 100 100 97 100 100 100 100 99 98 98
26 40 43 44 45 40 26 14 13 13 11 10 9 9 10 8 6 8 13 18 24 25 32 34 53 60 78 81 53 49 47 56 73 80 73 100 99 99 98 91 83 87 96 96 97 97 90 97 97 98 97 99 99 99
42 45 46 46 38 23 15 15 14 13 12 10 8 11 9 6 7 8 13 20 32 36 38 49 59 66 68 78 68 59 74 92 97 99 100 98 97 94 91 93 94 97 91 90 98 98 98 98 99 99 99 98 99 98
47 48 44 33 20 17 17 15 15 13 11 9 12 11 7 7 7 12 20 30 36 43 48 61 79 90 89 87 76 58 94 96 97 99 95 86 79 96 100 92 94 96 99 97 96 96 95 98 100 100 100 98 98 98
47 39 26 20 20 18 18 17 14 12 10 12 14 10 7 8 11 18 27 34 47 52 63 74 88 100 100 90 78 78 90 93 94 99 98 92 99 100 100 100 100 100 100 100 91 85 87 88 93 98 100 100 100 100
32 25 23 22 21 22 19 16 13 11 14 17 14 8 8 10 14 21 31 34 53 69 78 82 100 100 87 84 83 85 92 91 93 100 97 99 91 97 100 100 100 100 100 100 100 100 100 100 100 96 95 97 99 99
28 26 26 26 24 21 17 13 13 15 19 18 13 8 11 15 21 21 25 48 60 70 86 99 96 88 80 80 85 86 93 98 100 100 96 95 99 99 100 100 99 98 95 99 98 99 100 97 98 99 99 97 98 100
30 30 28 25 22 18 14 15 20 24 25 20 10 11 16 22 22 28 46 60 66 82 96 94 81 80 90 92 82 91 97 100 100 96 97 99 100 100 95 97 100 100 87 91 100 100 100 99 100 98 98 99 100 99
32 29 26 23 19 16 18 27 29 27 25 16 12 17 16 21 29 38 49 57 75 97 93 90 85 84 89 87 93 96 100 100 96 93 94 98 99 78 83 97 99 96 95 97 99 99 99 99 99 100 100 98 100 99
30 26 23 19 19 22 30 34 32 32 28 13 16 23 24 30 29 37 50 68 96 89 88 90 78 83 88 96 96 96 99 100 100 99 99 99 86 73 83 95 99 98 96 98 98 99 100 99 100 100 99 99 100 100
26 23 22 21 27 35 38 38 38 35 25 15 23 29 29 26 30 37 45 60 89 88 88 88 83 84 87 93 94 98 99 98 99 98 99 80 68 76 86 97 99 98 98 99 99 98 100 98 99 99 99 100 99 99
24 25 25 36 40 39 43 45 40 32 19 27 35 40 34 29 32 31 40 60 86 88 92 95 92 89 95 92 97 98 97 98 100 99 70 60 66 72 89 100 100 100 99 100 100 100 100 100 100 100 98 98 99 98
27 32 40 45 45 44 47 45 44 41 40 36 39 46 41 41 37 30 36 44 75 88 92 100 98 98 97 98 98 98 99 97 92 67 58 59 68 78 92 98 100 100 98 99 97 84 74 75 77 91 96 90 95 98
35 42 53 54 51 52 46 46 46 46 40 36 40 40 50 50 49 34 32 39 62 91 90 93 97 97 98 98 98 100 100 100 93 63 55 53 58 78 92 98 100 100 100 100 93 72 67 72 73 79 66 54 54 53
48 60 61 57 59 54 50 49 47 42 42 45 50 53 52 52 52 34 29 40 56 91 95 97 98 98 98 99 98 99 100 100 76 60 59 57 55 61 84 94 97 99 100 100 98 80 74 75 75 64 50 52 54 51
58 61 65 62 59 51 44 50 42 48 49 51 68 64 59 56 46 36 32 38 41 87 96 97 96 98 99 99 99 99 99 98 68 65 60 56 52 51 62 84 98 98 100 100 97 82 70 65 72 61 52 52 52 57
59 68 67 63 51 36 34 45 50 49 48 62 68 69 70 65 54 44 38 44 48 55 96 99 99 99 99 99 99 99 99 98 77 62 58 56 58 57 55 59 80 92 94 94 93 88 74 68 72 68 53 55 58 62
62 68 62 50 35 34 46 52 58 58 60 67 63 64 66 67 68 58 54 54 62 56 76 100 100 100 100 100 99 99 99 98 82 66 58 53 50 47 47 48 52 71 90 92 91 92 84 71 74 74 54 56 59 63
58 62 63 55 56 56 52 62 64 69 72 76 76 65 66 75 70 68 64 72 66 60 76 100 100 100 100 100 100 99 99 98 89 70 62 55 52 54 52 47 44 43 61 86 89 94 93 80 72 77 63 54 57 56
64 67 63 60 58 70 68 69 78 85 90 93 85 69 76 80 81 71 79 84 76 62 72 82 98 100 100 100 100 100 100 99 96 74 72 65 58 54 53 55 52 46 46 63 89 94 94 87 75 77 72 55 56 54
64 71 66 68 82 87 91 95 94 92 91 89 85 86 83 88 83 89 93 99 97 90 82 77 76 69 94 100 100 100 100 100 98 88 78 75 69 68 66 63 58 53 47 50 76 91 90 89 75 74 76 58 54 58
67 65 61 72 77 80 83 83 88 99 90 95 78 95 95 89 84 92 91 89 87 90 88 80 84 77 58 82 99 99 100 100 99 98 89 82 76 73 70 69 67 62 54 48 60 90 94 94 80 74 81 68 56 59
61 56 70 90 81 74 85 89 99 100 92 100 99 100 100 98 98 100 100 95 91 96 97 91 85 84 76 60 78 99 99 100 100 99 96 88 81 72 68 68 69 66 58 47 54 84 94 96 87 75 80 78 57 60
54 70 85 86 89 88 93 100 100 98 100 100 100 90 82 87 99 100 100 97 93 95 98 95 94 93 86 79 68 90 100 99 99 100 100 94 80 72 68 68 70 67 62 49 53 75 93 94 89 77 80 84 60 62
60 72 78 82 85 84 83 97 89 91 94 96 89 79 80 88 90 89 87 85 82 88 94 95 97 98 97 92 84 87 100 100 100 100 100 96 81 75 73 71 70 67 64 53 51 68 90 93 92 79 83 91 62 62
61 68 71 70 61 73 75 80 79 77 76 77 78 72 65 55 53 53 54 53 60 79 96 99 98 99 100 100 98 97 100 100 100 100 100 97 88 84 80 75 73 71 67 58 53 67 89 93 94 82 84 93 66 65
48 59 63 61 61 70 74 69 68 66 63 60 55 52 52 55 59 55 50 49 60 87 98 99 97 100 100 100 100 100 100 100 100 100 100 100 95 91 87 80 77 76 69 62 52 64 90 95 96 86 86 96 71 67
46 57 63 61 60 66 70 68 61 59 57 52 51 54 57 62 64 59 55 49 51 60 91 99 99 100 100 100 100 100 100 100 100 100 100 100 100 97 92 85 81 80 74 64 54 63 90 96 97 91 88 95 79 69
Wind_Speed
11 13 13 15 17 21 24 26 26 26 26 26 26 26 28 30 29 28 29 29 28 28 22 26 26 18 14 15 20 22 22 8 15 14 9 7 11 8 16 17 15 15 12 12 11 8 7 13 33 25 33 38 40 41
15 13 14 16 19 22 25 25 25 25 25 25 26 27 28 29 30 29 24 26 27 26 25 24 11 14 20 22 20 19 15 18 13 9 11 12 20 13 19 12 12 8 15 22 17 17 27 26 33 36 40 46 48 49
12 14 16 18 20 24 24 24 24 24 24 25 26 28 28 28 28 27 25 27 28 31 26 14 14 18 18 6 17 18 14 13 14 15 14 17 22 17 19 20 21 11 16 16 26 27 35 40 41 44 46 50 51 52
15 17 18 20 23 24 23 23 22 23 24 26 27 29 28 27 26 26 25 25 26 25 22 24 20 16 12 8 11 12 12 12 14 14 16 20 25 19 22 22 19 23 25 33 35 39 45 44 43 40 38 36 38 39
18 19 20 22 22 22 22 21 21 23 25 27 28 28 27 26 25 26 26 26 20 20 24 24 10 10 10 9 12 10 15 18 19 20 21 27 28 20 16 15 1 27 29 32 38 40 43 47 41 37 36 36 33 34
19 19 21 21 21 21 20 20 21 23 25 26 27 27 24 24 26 26 26 22 20 19 21 18 5 11 13 13 16 22 21 18 17 20 19 18 14 14 7 6 13 24 27 31 37 37 40 39 35 33 33 31 31 33
19 21 20 20 19 18 19 20 21 23 24 26 26 24 23 24 22 20 20 20 16 16 16 14 6 16 18 19 29 26 19 11 9 7 5 5 6 3 3 24 25 26 27 30 32 37 38 38 39 33 31 31 29 28
19 18 18 17 16 17 19 21 22 23 24 24 24 22 23 21 19 17 15 14 13 16 12 7 13 19 23 35 35 25 10 6 5 4 2 4 4 11 9 24 25 26 27 29 32 34 36 36 35 33 30 29 28 26
17 16 14 14 16 18 19 21 23 24 24 23 20 20 20 19 18 15 13 11 17 11 9 9 17 21 33 36 28 14 11 9 11 7 8 8 22 16 24 26 26 27 29 32 32 33 33 35 37 37 34 30 29 28
13 12 13 15 17 18 20 22 23 24 24 21 18 19 18 18 14 11 9 12 11 11 12 10 24 27 32 30 22 7 7 7 5 7 2 7 17 23 22 24 25 25 25 28 32 35 37 37 36 37 38 34 31 30
10 12 14 16 18 20 21 23 23 24 21 19 19 17 16 13 8 6 6 11 9 9 10 24 31 33 27 19 6 5 4 5 4 6 2 3 16 25 24 24 25 23 22 23 26 29 30 34 35 36 36 37 35 33
11 13 14 17 18 20 22 23 22 21 20 19 18 15 10 6 4 3 9 9 8 8 25 29 30 28 12 5 4 4 4 4 3 7 2 4 22 24 24 25 26 24 22 21 23 25 27 29 31 31 32 33 34 33
12 14 16 18 20 21 21 20 19 18 19 18 15 6 5 2 4 5 10 11 17 24 26 25 26 11 2 4 3 4 4 3 5 3 3 13 22 23 24 25 24 24 24 22 19 21 23 23 26 28 29 30 29 29
13 15 17 19 20 20 18 16 17 17 17 15 8 6 2 3 6 15 16 20 22 23 22 17 16 6 4 3 3 3 4 3 3 3 6 19 21 23 24 24 24 22 23 21 20 21 21 22 23 23 25 26 26 27
15 16 18 18 17 16 15 15 15 15 15 10 5 3 3 11 13 16 18 20 21 20 19 14 8 7 5 3 3 3 3 3 3 7 15 18 22 23 22 22 22 22 23 23 23 22 22 22 23 22 23 22 22 22
16 16 16 15 14 14 14 14 14 15 12 5 2 5 9 10 14 16 18 20 20 20 16 9 4 3 3 2 2 3 3 3 6 12 15 18 19 20 21 20 21 21 21 22 22 22 22 22 22 24 22 22 23 23
14 14 13 11 12 12 13 14 14 11 5 5 7 11 9 10 13 16 18 20 19 19 14 5 4 2 3 2 2 2 2 5 9 12 15 18 19 19 19 19 19 19 20 21 21 21 22 22 22 20 21 24 24 24
12 10 9 10 12 13 13 12 10 5 11 11 10 11 8 11 12 15 17 19 19 18 15 6 5 4 3 2 1 1 3 7 9 12 14 16 17 18 18 18 18 19 19 20 20 21 21 19 20 24 24 25 25 26
9 8 8 11 13 14 15 10 14 11 10 11 11 12 10 11 12 14 15 17 17 16 13 7 2 2 3 2 3 2 4 6 7 10 13 16 17 17 17 18 18 17 18 19 20 22 22 22 21 21 21 21 23 23
7 7 9 11 12 14 14 13 13 11 12 16 12 10 10 10 11 12 13 14 13 13 11 7 5 2 2 4 3 3 6 6 8 11 14 15 16 16 16 16 17 17 18 18 18 18 19 19 18 19 20 21 22 23
8 7 9 10 10 12 17 11 10 10 15 11 11 12 10 8 10 10 11 11 11 9 9 7 5 3 3 3 2 4 6 4 7 9 11 13 16 18 18 17 16 16 16 16 16 18 18 19 19 19 20 20 23 24
7 7 8 10 14 16 4 6 11 12 11 9 12 12 11 10 10 10 10 6 9 9 7 5 3 0 1 0 3 5 5 3 6 8 11 13 15 16 17 17 16 15 15 15 16 17 18 18 18 17 18 20 21 21
7 8 8 12 9 4 3 10 12 11 9 11 13 13 12 11 11 10 8 9 9 7 7 5 4 3 3 3 4 6 5 3 5 7 9 11 13 15 17 18 18 17 16 15 16 17 17 18 17 16 17 18 19 19
7 8 10 5 6 7 8 10 13 10 10 12 15 15 13 12 13 13 12 8 6 8 7 4 4 5 5 5 6 6 6 3 3 5 7 9 12 14 16 19 19 19 17 16 17 17 16 16 16 15 14 15 15 17
7 6 6 6 5 10 12 13 15 10 11 15 17 14 11 13 15 14 6 4 5 7 10 9 6 6 7 7 7 6 5 4 2 3 5 8 10 12 15 17 19 20 19 18 16 16 15 15 14 13 12 12 13 15
5 4 4 8 12 13 13 14 16 12 13 16 14 12 15 13 8 3 5 3 6 10 13 14 12 9 7 7 7 7 6 6 4 3 5 7 8 11 14 15 17 19 19 17 16 14 14 14 13 13 12 12 13 15
7 9 12 12 13 13 15 14 12 13 17 18 17 13 8 4 3 2 9 15 16 17 16 14 12 10 8 8 7 7 7 8 6 4 4 6 7 9 12 13 15 17 18 17 14 13 12 12 12 11 11 10 11 13
15 17 16 18 17 16 16 16 16 16 18 12 12 12 7 7 12 16 18 18 18 18 17 15 13 11 10 9 8 8 8 9 8 7 6 6 7 9 10 10 13 15 16 16 14 12 12 12 11 11 10 10 10 11
16 17 17 18 17 17 18 18 19 16 14 15 16 16 18 17 18 20 20 20 20 20 19 17 14 13 12 12 12 10 10 10 10 9 8 6 6 8 9 10 12 15 16 16 14 12 11 11 11 10 9 8 9 10
12 12 13 15 15 16 13 12 13 13 14 14 14 15 17 18 19 20 20 20 20 19 18 17 16 15 14 14 14 12 12 11 11 9 8 7 5 6 9 11 13 14 14 15 13 11 9 10 9 9 8 7 7 9
12 12 12 10 9 7 10 11 12 12 13 13 15 15 15 16 15 15 16 17 17 16 15 14 16 16 14 15 15 13 13 12 11 10 9 8 7 7 9 10 12 13 13 14 13 10 8 9 8 8 7 6 6 8
11 11 10 10 8 8 9 11 13 14 12 10 11 12 10 14 18 16 15 12 12 12 12 12 13 11 11 13 13 12 13 12 12 11 11 10 9 9 10 11 11 12 12 13 12 10 8 8 7 6 6 5 4 6
11 10 9 10 10 10 11 14 15 14 10 10 7 11 14 17 18 17 14 13 12 11 10 10 9 7 11 12 12 12 13 12 11 11 12 12 11 11 12 12 12 12 12 12 11 9 7 7 6 5 4 4 3 4
Wind_Direction
217 242 267 287 304 314 323 326 328 330 331 330 331 332 335 334 336 338 335 334 335 335 341 334 328 317 333 332 321 321 331 333 330 332 310 324 304 310 314 322 320 312 303 305 312 292 284 286 304 312 299 296 298 298
233 258 280 296 307 318 320 323 325 327 327 327 329 332 332 333 333 335 336 331 330 327 329 325 340 337 328 314 309 325 312 325 311 327 331 331 324 328 318 308 340 304 300 298 288 281 293 306 310 304 299 296 294 290
247 272 289 298 311 315 319 321 323 324 325 326 329 329 331 333 331 334 335 330 326 324 333 351 324 329 326 333 317 319 318 320 308 308 314 322 310 313 312 317 317 296 317 313 316 314 309 312 313 307 298 292 289 286
265 283 290 301 311 314 316 318 320 324 324 326 328 330 330 332 333 333 330 326 324 323 325 344 336 333 314 332 344 337 322 308 306 294 285 297 304 306 305 313 297 352 342 340 332 331 318 321 321 317 310 303 296 289
277 284 291 305 309 311 313 316 322 324 326 327 328 328 331 333 334 330 326 327 328 332 325 347 348 339 337 332 331 324 324 314 307 296 288 291 299 309 315 298 244 355 347 342 331 335 332 331 330 330 325 323 319 309
276 285 297 302 307 309 313 319 324 326 326 326 326 329 332 334 331 328 325 333 338 331 327 345 335 346 333 321 323 319 319 306 284 286 290 297 306 294 287 8 340 345 344 339 336 335 336 335 338 337 328 330 331 327
282 292 298 302 305 310 318 320 324 324 325 325 327 330 333 332 330 329 329 332 345 342 336 340 336 335 335 327 329 337 334 321 305 293 307 307 296 204 30 0 342 339 337 339 344 343 344 352 347 342 342 342 340 341
286 293 296 301 307 315 317 320 320 322 326 328 328 330 332 334 332 330 334 339 337 341 340 330 327 335 336 336 336 346 9 49 63 62 42 128 45 39 356 347 342 336 338 346 352 351 349 352 353 352 351 349 351 353
288 290 298 305 313 315 316 317 320 325 328 328 326 330 332 334 339 343 342 338 338 334 325 326 330 331 327 334 341 5 44 49 60 82 118 37 39 18 352 342 342 343 342 346 353 353 353 358 0 2 1 360 360 0
283 293 303 311 313 313 316 318 323 326 325 325 327 330 337 339 336 341 345 338 326 316 320 328 330 321 325 333 345 18 27 27 53 59 35 26 25 0 353 348 345 344 343 346 348 354 357 1 2 9 11 10 8 5
292 303 309 310 311 316 319 322 324 324 325 324 331 336 332 332 334 345 339 343 321 314 318 322 326 323 328 331 15 23 22 23 44 23 9 29 349 354 354 352 350 348 346 347 351 353 355 359 0 7 12 14 15 15
304 306 307 310 315 321 323 322 323 324 329 335 333 332 329 349 358 345 343 338 328 315 323 328 329 332 342 20 36 6 29 32 33 345 358 1 348 349 352 353 352 352 353 350 349 353 357 1 3 8 11 11 12 13
302 305 311 317 322 322 321 320 324 331 334 335 335 327 336 9 348 329 331 327 332 334 337 335 343 354 36 33 26 25 45 13 341 2 8 346 345 350 352 354 354 355 355 350 350 354 356 2 3 8 14 15 12 14
307 313 318 321 320 317 318 325 330 333 335 337 327 328 353 355 323 331 334 336 338 339 338 340 353 4 27 56 29 47 29 351 358 10 343 344 348 352 351 352 353 358 359 358 1 2 2 6 7 9 13 15 17 21
317 318 319 317 315 318 326 333 333 333 333 328 315 326 339 325 335 341 341 342 341 342 340 337 340 10 28 46 44 32 349 3 20 346 342 346 350 351 352 355 358 3 7 11 15 14 14 14 13 13 18 18 24 22
317 316 316 317 322 330 332 332 332 333 336 315 258 299 313 329 341 345 344 344 345 347 345 341 330 340 358 15 19 15 353 3 349 347 348 350 353 353 357 0 3 8 11 13 14 15 16 18 19 22 22 26 30 32
316 315 319 326 335 336 336 337 341 347 348 324 316 317 315 325 330 340 344 346 348 350 346 335 318 314 317 323 348 2 21 7 357 354 351 355 356 1 2 5 7 11 13 16 17 18 23 22 25 25 32 35 34 39
317 318 325 330 335 337 339 347 351 343 340 341 323 315 310 325 326 333 341 344 345 349 345 326 292 290 307 301 308 103 21 9 5 359 359 3 3 3 6 10 13 14 13 15 21 20 23 22 26 30 31 33 31 38
312 316 330 334 336 339 342 355 350 336 340 336 325 321 310 317 318 323 333 341 343 347 349 349 333 327 303 270 153 86 13 6 8 2 7 11 11 9 11 12 14 15 16 15 18 20 23 22 28 34 35 37 39 40
295 308 326 333 333 338 343 340 346 342 337 332 329 320 312 305 311 317 328 335 341 349 1 355 339 297 164 145 121 29 6 2 6 8 13 12 12 15 17 19 17 17 18 17 21 22 24 24 28 37 39 38 41 39
281 304 315 326 335 338 333 325 343 332 331 334 341 326 325 316 318 318 326 328 342 349 358 13 35 99 130 127 48 4 357 16 8 11 17 19 18 19 20 20 20 20 19 19 21 23 25 28 32 37 37 36 38 37
276 295 317 329 330 328 349 359 345 340 344 349 344 341 333 327 323 324 327 330 343 340 337 336 339 275 187 286 338 342 342 357 6 9 18 20 20 19 20 20 21 21 22 21 23 26 28 29 31 34 36 37 36 36
295 312 320 326 337 350 340 341 342 345 347 347 350 351 353 349 344 340 342 339 332 335 324 304 297 276 271 295 314 325 324 324 2 9 16 16 17 20 20 21 21 19 21 22 24 26 26 27 27 30 32 32 32 34
307 303 315 318 327 310 307 343 345 333 328 336 338 336 336 336 332 332 338 339 347 347 341 309 288 282 279 284 298 308 305 286 347 360 9 11 12 16 16 16 17 17 18 18 23 24 23 23 25 27 30 31 29 30
303 310 298 292 323 322 313 302 325 325 325 326 330 332 327 326 323 321 333 342 356 23 27 17 346 310 292 286 289 291 284 265 301 339 354 359 2 5 9 11 12 13 12 12 14 15 16 19 21 23 27 28 27 30
290 270 278 300 312 312 310 301 310 313 326 327 323 318 321 317 307 305 336 347 334 331 334 339 337 333 316 297 288 283 271 258 265 306 324 340 349 357 358 358 2 6 7 8 7 8 10 12 13 17 21 23 23 25
268 287 309 328 313 303 295 298 291 293 314 315 323 317 316 293 288 297 320 316 317 320 319 315 319 315 307 308 291 281 261 255 261 276 307 322 332 346 350 352 355 357 360 1 1 3 6 7 8 12 15 18 19 19
287 295 301 311 309 305 300 293 292 301 306 302 304 298 285 276 287 302 301 301 302 309 314 306 297 296 298 288 288 271 258 256 264 277 287 301 319 334 343 347 347 351 355 357 358 359 2 3 4 8 11 10 10 13
303 302 302 303 302 302 302 300 300 300 298 291 285 280 282 294 299 301 300 298 298 300 302 297 291 286 280 272 267 264 254 252 258 268 271 277 305 327 336 339 342 347 352 353 354 355 354 355 358 2 5 5 6 10
307 301 298 299 303 305 309 300 300 300 303 301 296 293 295 300 299 299 298 297 294 293 292 288 285 284 276 258 250 251 247 246 251 259 263 261 286 316 330 335 337 341 346 347 347 348 348 349 351 355 356 359 1 7
312 306 300 302 303 305 309 315 313 308 306 303 300 304 308 312 321 319 310 306 297 284 285 284 289 284 266 241 238 244 242 242 247 254 252 251 270 296 316 325 328 332 337 339 340 342 343 345 349 349 347 352 358 5
312 308 298 294 294 299 308 316 317 317 315 313 316 315 327 325 329 330 323 324 317 298 290 295 300 272 240 230 239 242 239 240 246 252 251 252 264 286 303 315 318 320 327 330 330 333 333 336 338 336 334 338 345 4
312 304 302 296 295 295 303 313 322 323 317 320 327 336 334 331 331 328 324 324 325 319 306 300 308 273 240 238 242 239 235 240 247 252 253 258 269 282 294 306 309 311 317 320 320 320 317 316 317 317 316 319 326 4